SCP
0 0 0 0 0 0 0 0 0 0 0 0 0 0 0 0 0 0 0 0 0 0 0 0 0 0 0 0 0 0 0 0 0 0 0 0 0 0 0 0 0 0 0
0 0 0 0 0 0 0 0 0 0 0 0 0 0 0 0 0 0 0 0 0 0 0 0 0 0 0 0 0 0 0 0 0 0 0 0 0 0 0 0 0 0 0
0 0 0 0 0 0 0 0 0 0 0 0 0 0 0 0 0 0 0 0 0 0 0 0 0 0 0 0 0 0 0 0 0 0 0 0 0 0 0 0 0 0 0
0 0 0 0 0 0 0 0 0 0 0 0 0 0 0 0 0 0 0 0 0 0 0 0 0 0 0 0 0 0 0 0 0 0 0 0 0 0 0 0 0 0 0
0 0 0 0 0 0 0 0 0 0 0 0 0 0 0 0 0 0 0 0 0 0 0 0 0 0 0 0 0 0 0 0 0 0 0 0 0 0 0 0 0 0 0
0 0 0 0 0 0 0 0 0 0 0 0 0 0 0 0 0 0 0 0 0 0 0 0 0 0 0 0 0 0 0 0 0 0 0 0 0 0 0 0 0 0 0
0 0 0 0 0 0 0 0 0 0 0 0 0 0 0 0 0 0 0 0 0 0 0 0 0 0 0 0 0 0 0 0 0 0 0 0 0 0 0 0 0 0 0
0 0 0 0 0 0 0 0 0 0 0 0 0 0 0 0 0 0 0 0 0 0 0 0 0 0 0 0 0 0 0 0 0 0 0 0 0 0 0 0 0 0 0
0 0 0 0 0 0 0 0 0 0 0 0 0 0 0 0 0 0 0 0 0 0 0 0 0 0 0 0 0 0 0 0 0 0 0 0 0 0 0 0 0 0 0
0 0 0 0 0 0 0 0 0 0 0 0 0 0 0 0 0 0 0 0 0 0 0 0 0 0 0 0 0 0 0 0 0 0 0 0 0 0 0 0 0 0 0
0 0 0 0 0 0 0 0 0 0 0 0 0 0 0 0 0 0 0 0 0 0 0 0 0 0 0 0 0 0 0 0 0 0 0 0 0 0 0 0 0 0 0
0 0 0 0 0 0 0 0 0 0 0 0 0 0 0 0 0 0 0 0 0 0 0 0 0 0 0 0 0 0 0 0 0 0 0 0 0 0 0 0 0 0 0
0 0 0 0 0 0 0 0 0 0 0 0 0 0 0 0 0 0 0 0 0 0 0 0 0 0 0 0 0 0 0 0 0 0 0 0 0 0 0 0 0 0 0
0 0 0 0 0 0 0 0 0 0 0 0 0 0 0 0 0 0 0 0 0 0 0 0 0 0 0 0 0 0 0 0 0 0 0 0 0 0 0 0 0 0 0
0 0 0 0 0 0 0 0 0 0 0 0 0 0 0 0 0 0 0 0 0 0 0 0 0 0 0 0 0 0 0 0 0 0 0 0 0 0 0 0 0 0 0
0 0 0 0 0 0 0 0 0 0 0 0 0 0 0 0 0 0 0 0 0 0 0 0 0 0 0 0 0 0 0 0 0 0 0 0 0 0 0 0 0 0 0
0 0 0 0 0 0 0 0 0 0 0 0 0 0 0 0 0 0 0 0 0 0 0 0 0 0 0 0 0 0 0 0 0 0 0 0 0 0 0 0 0 0 0
0 0 0 0 0 0 0 0 0 0 0 0 0 0 0 0 0 0 0 0 0 0 0 0 0 0 0 0 0 0 0 0 -0 0 0 0 0 0 0 0 0 0 0
0 0 0 0 0 0 0 0 0 0 0 0 0 0 0 0 -0 0 0 0 0 0 0 0 0 0 0 0 0 0 0 0 0 0 0 0 0 0 0 -0 0 0 0
0 0 0 0 0 0 0 0 0 0 0 0 0 0 0 0 0 0 0 0 0 0 0 0 0 0 0 0 0 0 0 0 0 0 0 0 0 0 0 0 0 0 0
0 0 0 0 0 0 0 0 0 0 -0 -0 0 0 -0 0 0 0 0 0 0 0 0 0 0 0 0 0 0 0 0 0 0 0 0 0 0 0 0 0 0 0 0
0 0 0 0 0 0 0 0 0 -0 -0 -0 -0 -0 -0 -0 -0 -0 -0 -0 -0 0 0 0 0 0 0 0 0 0 0 0 0 0 0 0 0 0 0 0 0 0 0
0 0 0 0 0 0 0 0 -0 -0 -0 -0 -0 -0 0 -0 -0 0 0 0 0 0 0 0 0 0 0 0 0 0 0 0 0 0 0 0 0 0 0 0 0 0 0
0 0 0 0 0 0 -0 -0 -0 -0 -0 -0 -0 0 0 0 0 0 0 0 0 0 0 0 0 0 0 0 0 0 0 0 0 0 0 0 0 0 0 0 0 0 0
0 0 0 0 -0 -0 -0 -0 -0 -0 -0 0 0 0 0 0 0 0 0 0 0 0 0 0 0 0 0 0 0 0 0 0 0 0 0 0 0 0 0 0 0 0 0
0 0 0 -0 -0 -0 -0 -0 -0 -0 0 -0 -0 -0 0 0 0 0 0 0 0 0 0 0 0 0 0 0 0 0 0 0 0 0 0 0 0 0 0 0 0 0 0
Wind_Speed_500mb
16 17 20 25 31 36 40 43 46 47 49 50 52 53 53 54 54 55 55 55 56 55 54 59 62 61 65 64 63 63 66 69 83 87 81 74 76 81 76 74 69 68 69
20 23 27 33 38 41 44 46 48 48 48 50 49 49 49 51 52 56 59 60 61 61 59 60 61 59 62 63 64 66 67 67 73 86 81 81 77 78 78 77 69 67 70
26 30 33 38 41 43 44 46 46 47 45 45 46 47 48 49 49 51 56 59 62 64 64 66 66 65 64 63 63 64 65 65 68 74 85 81 79 77 78 76 73 72 71
33 34 35 39 41 44 45 45 47 48 51 51 52 53 53 54 54 55 58 61 61 62 62 63 65 67 68 65 63 63 63 64 65 68 78 82 78 75 75 77 78 75 80
34 36 38 41 44 47 46 46 47 47 51 54 56 57 59 61 59 62 63 66 67 66 64 63 63 65 66 65 65 63 61 62 63 67 72 77 78 75 71 72 75 84 81
39 40 40 42 46 46 46 49 53 57 60 64 65 67 68 68 67 68 69 71 72 71 70 65 66 67 66 65 61 59 57 61 64 65 69 74 73 68 70 71 78 80 80
44 44 46 46 48 51 56 59 61 63 65 67 69 69 71 71 68 69 69 73 73 73 72 69 68 68 67 68 62 56 55 56 61 65 67 70 69 65 71 75 74 66 73
45 49 47 47 51 54 59 60 61 62 64 66 68 69 72 70 67 67 68 73 74 73 71 69 69 67 65 65 64 58 58 57 61 63 69 66 68 64 66 66 63 68 75
47 46 44 46 52 56 61 61 61 65 66 68 71 71 72 72 66 67 69 72 74 73 71 70 67 66 61 56 53 60 58 57 57 63 59 60 58 60 57 57 58 65 69
43 44 45 47 52 57 60 64 67 69 71 73 75 75 76 76 67 67 67 70 72 73 72 68 64 57 48 46 49 52 58 59 59 49 45 51 55 56 52 48 52 55 50
42 45 49 52 57 62 66 68 70 72 75 79 82 80 80 75 70 67 65 67 65 68 64 65 64 53 48 46 47 51 56 57 55 47 46 49 54 49 44 41 45 43 38
49 55 58 60 63 67 68 71 73 75 80 85 89 89 81 76 73 69 65 66 56 59 56 66 66 59 52 52 50 49 54 53 49 45 48 50 47 42 41 42 38 32 27
54 58 61 65 68 68 71 74 77 78 80 84 85 84 82 76 73 69 68 65 56 56 50 61 57 49 53 53 47 46 47 41 44 48 51 47 40 41 39 37 28 23 22
57 61 66 70 74 76 80 82 80 80 80 82 84 84 82 78 74 72 69 66 57 49 49 48 44 45 46 50 50 44 45 41 45 50 46 40 41 37 35 28 21 20 20
58 67 71 74 76 78 80 81 82 83 80 77 80 77 77 79 78 69 59 63 67 69 66 61 58 55 49 46 48 46 45 43 48 47 42 38 37 32 29 21 18 13 14
62 70 75 80 81 83 86 85 81 83 80 69 67 66 74 78 71 68 66 66 66 63 64 69 70 56 55 50 48 51 50 49 43 40 37 36 33 29 23 20 15 7 4
66 71 78 82 85 82 80 81 88 89 83 79 69 66 66 70 64 64 66 66 65 59 64 67 63 61 57 51 50 49 46 40 40 39 37 34 28 25 20 18 10 6 5
65 72 78 80 76 75 75 77 80 83 87 90 80 75 70 67 60 63 62 63 69 59 61 62 60 56 54 52 48 41 35 35 41 36 34 31 27 23 23 14 12 12 7
65 74 75 77 74 74 74 77 78 80 83 87 86 81 74 71 70 65 58 61 65 59 52 46 48 56 59 52 47 39 36 36 38 34 32 30 26 28 25 19 19 16 6
68 70 71 71 72 73 74 77 81 82 83 86 86 84 78 76 72 61 48 46 40 40 50 44 42 50 52 48 44 40 39 40 41 36 32 31 27 31 25 24 23 16 8
68 68 65 67 70 72 74 77 78 80 84 85 85 80 71 60 66 66 58 48 46 43 42 48 54 56 52 42 39 42 40 42 41 33 33 31 35 32 31 33 25 17 14
59 61 63 67 68 71 74 76 79 80 82 82 80 75 67 64 63 59 54 47 42 39 35 38 43 45 44 40 41 40 42 43 39 35 32 35 38 35 36 33 26 20 19
59 61 63 66 68 72 75 76 77 77 75 73 71 69 67 63 56 51 45 37 33 31 32 36 43 40 39 39 40 38 41 40 35 35 36 40 41 41 40 32 27 26 21
58 60 63 67 69 73 76 78 75 74 72 69 66 63 60 55 51 45 38 34 31 30 30 32 37 36 39 37 39 39 38 37 36 35 38 40 44 47 42 35 31 28 24
58 61 63 67 71 75 77 76 74 70 67 64 60 56 53 50 46 35 31 29 29 31 29 30 33 38 35 38 40 42 44 44 42 41 42 45 48 48 42 38 34 31 26
60 62 65 69 73 75 74 73 71 66 64 60 56 53 48 45 34 28 26 26 27 29 26 29 36 39 38 42 44 45 45 46 46 47 47 52 53 50 46 40 37 34 31
Wind_Direction_500mb
262 276 287 295 298 299 298 298 298 298 298 298 298 296 296 294 293 292 291 291 290 290 288 286 285 285 284 284 283 283 281 281 281 289 294 302 303 305 310 316 318 316 317
277 285 291 295 298 299 299 299 300 300 300 301 300 300 300 296 293 292 290 289 290 290 290 288 290 290 287 285 283 282 283 284 284 288 294 297 300 304 310 315 317 317 318
277 282 290 296 300 302 302 302 301 301 301 299 299 300 300 300 299 297 295 292 289 290 290 289 290 291 291 292 288 283 283 283 284 285 289 293 298 304 311 312 316 319 320
281 287 292 296 301 304 303 303 304 306 308 308 307 307 305 304 304 302 299 297 295 293 292 290 290 288 288 290 289 286 283 282 283 282 285 290 295 303 309 312 315 321 323
288 292 297 298 298 297 299 301 302 304 304 304 303 303 303 304 305 304 301 298 297 296 296 295 293 289 286 286 286 286 283 280 280 280 281 286 293 301 308 311 315 321 321
290 293 295 294 287 288 296 299 301 302 301 300 299 299 299 299 302 302 301 300 296 295 297 297 296 292 291 285 283 282 277 279 279 277 277 280 289 299 307 308 313 318 321
283 291 295 292 287 290 295 298 299 300 300 300 300 300 299 298 298 300 299 297 298 297 297 299 296 294 290 288 285 279 272 268 271 275 273 279 288 300 301 303 306 308 308
282 288 293 292 291 292 295 297 299 299 300 301 303 302 301 302 303 302 299 296 296 296 296 296 294 293 290 288 288 283 279 270 266 263 263 278 284 290 290 294 304 304 305
290 295 297 292 288 288 292 297 298 299 300 301 302 303 303 303 304 302 300 297 296 295 296 295 292 290 288 283 284 286 282 282 275 264 268 275 279 284 292 294 294 298 304
293 294 293 292 291 291 294 295 298 299 299 299 300 302 304 304 304 302 300 297 296 296 295 294 293 293 288 284 280 276 277 281 285 281 263 268 277 283 290 288 293 291 297
289 290 291 292 293 294 295 296 298 299 298 298 298 300 301 302 301 300 298 294 295 295 297 295 295 296 286 282 279 276 276 287 281 273 267 270 277 290 290 288 284 285 286
288 290 294 297 298 298 298 298 296 296 296 297 299 301 302 301 301 301 299 296 297 291 286 286 288 289 285 282 280 269 267 276 270 269 270 275 288 294 293 285 281 278 273
289 294 298 300 301 301 299 298 297 297 296 297 299 300 303 303 300 299 298 296 293 288 278 279 287 282 277 278 273 265 273 265 256 260 268 283 293 293 292 287 274 269 273
290 295 301 303 304 303 302 301 299 297 297 296 297 298 301 302 301 299 301 298 297 291 286 276 277 280 282 275 269 264 267 255 254 258 271 285 289 290 287 276 264 264 290
289 292 296 301 302 300 297 295 295 295 296 295 294 296 297 298 299 298 291 290 292 293 295 285 272 274 281 278 264 261 261 261 251 259 273 281 283 283 281 258 245 262 304
288 294 298 301 301 298 298 297 295 296 296 285 278 277 280 281 286 285 284 283 283 283 279 272 270 265 274 275 265 259 256 260 258 259 267 272 275 274 262 235 235 262 285
291 296 298 299 296 296 296 297 299 301 297 294 288 283 281 284 283 282 284 284 283 278 266 264 261 259 265 272 273 260 260 257 254 250 258 264 260 257 232 211 210 190 201
292 295 299 299 296 295 294 296 297 298 300 301 300 299 297 297 289 287 287 286 277 267 249 256 258 257 264 268 269 273 266 257 245 244 251 254 243 229 212 205 188 179 175
290 297 302 298 295 295 296 298 298 298 298 299 301 299 301 299 296 295 290 273 268 262 247 256 260 254 258 262 263 264 262 250 237 236 243 240 229 216 210 199 181 176 174
296 300 298 295 294 295 299 300 300 300 300 300 299 300 303 301 298 294 279 265 258 267 245 253 260 257 254 257 258 255 253 238 233 230 233 221 212 207 200 185 176 179 167
297 295 295 295 297 300 299 299 301 300 299 298 297 300 299 294 289 289 284 267 249 246 248 251 255 255 253 255 247 241 242 230 229 225 225 209 204 203 188 173 175 175 169
295 297 298 300 300 300 302 303 301 300 298 297 297 298 297 291 290 285 279 264 247 246 246 254 258 251 242 243 237 240 230 225 220 215 208 198 197 191 181 174 172 173 170
300 301 302 302 302 303 302 303 302 300 298 296 295 296 296 296 292 284 273 250 244 243 248 260 257 249 233 225 227 228 221 220 213 209 198 192 189 181 174 173 171 174 169
304 304 303 303 304 306 306 306 305 302 299 297 296 296 295 294 290 281 261 244 247 250 260 261 247 233 213 218 220 210 206 200 199 199 191 188 180 173 170 168 169 169 161
307 306 306 308 309 309 308 307 305 301 300 299 297 296 295 292 287 269 247 245 250 257 266 250 230 208 208 210 205 200 196 191 188 184 181 177 174 171 169 167 169 162 153
309 310 310 311 311 310 308 307 304 301 299 298 296 296 294 291 276 256 246 252 255 258 249 230 215 203 204 201 194 195 192 187 181 177 172 171 169 168 166 165 162 156 150
Wind_Speed_850mb
16 17 20 25 31 36 40 43 46 47 49 50 52 53 53 54 54 55 55 55 56 55 54 59 62 61 65 64 63 63 66 69 83 87 81 74 76 81 76 74 69 68 69
20 23 27 33 38 41 44 46 48 48 48 50 49 49 49 51 52 56 59 60 61 61 59 60 61 59 62 63 64 66 67 67 73 86 81 81 77 78 78 77 69 67 70
26 30 33 38 41 43 44 46 46 47 45 45 46 47 48 49 49 51 56 59 62 64 64 66 66 65 64 63 63 64 65 65 68 74 85 81 79 77 78 76 73 72 71
33 34 35 39 41 44 45 45 47 48 51 51 52 53 53 54 54 55 58 61 61 62 62 63 65 67 68 65 63 63 63 64 65 68 78 82 78 75 75 77 78 75 80
34 36 38 41 44 47 46 46 47 47 51 54 56 57 59 61 59 62 63 66 67 66 64 63 63 65 66 65 65 63 61 62 63 67 72 77 78 75 71 72 75 84 81
39 40 40 42 46 46 46 49 53 57 60 64 65 67 68 68 67 68 69 71 72 71 70 65 66 67 66 65 61 59 57 61 64 65 69 74 73 68 70 71 78 80 80
44 44 46 46 48 51 56 59 61 63 65 67 69 69 71 71 68 69 69 73 73 73 72 69 68 68 67 68 62 56 55 56 61 65 67 70 69 65 71 75 74 66 73
45 49 47 47 51 54 59 60 61 62 64 66 68 69 72 70 67 67 68 73 74 73 71 69 69 67 65 65 64 58 58 57 61 63 69 66 68 64 66 66 63 68 75
47 46 44 46 52 56 61 61 61 65 66 68 71 71 72 72 66 67 69 72 74 73 71 70 67 66 61 56 53 60 58 57 57 63 59 60 58 60 57 57 58 65 69
43 44 45 47 52 57 60 64 67 69 71 73 75 75 76 76 67 67 67 70 72 73 72 68 64 57 48 46 49 52 58 59 59 49 45 51 55 56 52 48 52 55 50
42 45 49 52 57 62 66 68 70 72 75 79 82 80 80 75 70 67 65 67 65 68 64 65 64 53 48 46 47 51 56 57 55 47 46 49 54 49 44 41 45 43 38
49 55 58 60 63 67 68 71 73 75 80 85 89 89 81 76 73 69 65 66 56 59 56 66 66 59 52 52 50 49 54 53 49 45 48 50 47 42 41 42 38 32 27
54 58 61 65 68 68 71 74 77 78 80 84 85 84 82 76 73 69 68 65 56 56 50 61 57 49 53 53 47 46 47 41 44 48 51 47 40 41 39 37 28 23 22
57 61 66 70 74 76 80 82 80 80 80 82 84 84 82 78 74 72 69 66 57 49 49 48 44 45 46 50 50 44 45 41 45 50 46 40 41 37 35 28 21 20 20
58 67 71 74 76 78 80 81 82 83 80 77 80 77 77 79 78 69 59 63 67 69 66 61 58 55 49 46 48 46 45 43 48 47 42 38 37 32 29 21 18 13 14
62 70 75 80 81 83 86 85 81 83 80 69 67 66 74 78 71 68 66 66 66 63 64 69 70 56 55 50 48 51 50 49 43 40 37 36 33 29 23 20 15 7 4
66 71 78 82 85 82 80 81 88 89 83 79 69 66 66 70 64 64 66 66 65 59 64 67 63 61 57 51 50 49 46 40 40 39 37 34 28 25 20 18 10 6 5
65 72 78 80 76 75 75 77 80 83 87 90 80 75 70 67 60 63 62 63 69 59 61 62 60 56 54 52 48 41 35 35 41 36 34 31 27 23 23 14 12 12 7
65 74 75 77 74 74 74 77 78 80 83 87 86 81 74 71 70 65 58 61 65 59 52 46 48 56 59 52 47 39 36 36 38 34 32 30 26 28 25 19 19 16 6
68 70 71 71 72 73 74 77 81 82 83 86 86 84 78 76 72 61 48 46 40 40 50 44 42 50 52 48 44 40 39 40 41 36 32 31 27 31 25 24 23 16 8
68 68 65 67 70 72 74 77 78 80 84 85 85 80 71 60 66 66 58 48 46 43 42 48 54 56 52 42 39 42 40 42 41 33 33 31 35 32 31 33 25 17 14
59 61 63 67 68 71 74 76 79 80 82 82 80 75 67 64 63 59 54 47 42 39 35 38 43 45 44 40 41 40 42 43 39 35 32 35 38 35 36 33 26 20 19
59 61 63 66 68 72 75 76 77 77 75 73 71 69 67 63 56 51 45 37 33 31 32 36 43 40 39 39 40 38 41 40 35 35 36 40 41 41 40 32 27 26 21
58 60 63 67 69 73 76 78 75 74 72 69 66 63 60 55 51 45 38 34 31 30 30 32 37 36 39 37 39 39 38 37 36 35 38 40 44 47 42 35 31 28 24
58 61 63 67 71 75 77 76 74 70 67 64 60 56 53 50 46 35 31 29 29 31 29 30 33 38 35 38 40 42 44 44 42 41 42 45 48 48 42 38 34 31 26
60 62 65 69 73 75 74 73 71 66 64 60 56 53 48 45 34 28 26 26 27 29 26 29 36 39 38 42 44 45 45 46 46 47 47 52 53 50 46 40 37 34 31
Wind_Direction_850mb
262 276 287 295 298 299 298 298 298 298 298 298 298 296 296 294 293 292 291 291 290 290 288 286 285 285 284 284 283 283 281 281 281 289 294 302 303 305 310 316 318 316 317
277 285 291 295 298 299 299 299 300 300 300 301 300 300 300 296 293 292 290 289 290 290 290 288 290 290 287 285 283 282 283 284 284 288 294 297 300 304 310 315 317 317 318
277 282 290 296 300 302 302 302 301 301 301 299 299 300 300 300 299 297 295 292 289 290 290 289 290 291 291 292 288 283 283 283 284 285 289 293 298 304 311 312 316 319 320
281 287 292 296 301 304 303 303 304 306 308 308 307 307 305 304 304 302 299 297 295 293 292 290 290 288 288 290 289 286 283 282 283 282 285 290 295 303 309 312 315 321 323
288 292 297 298 298 297 299 301 302 304 304 304 303 303 303 304 305 304 301 298 297 296 296 295 293 289 286 286 286 286 283 280 280 280 281 286 293 301 308 311 315 321 321
290 293 295 294 287 288 296 299 301 302 301 300 299 299 299 299 302 302 301 300 296 295 297 297 296 292 291 285 283 282 277 279 279 277 277 280 289 299 307 308 313 318 321
283 291 295 292 287 290 295 298 299 300 300 300 300 300 299 298 298 300 299 297 298 297 297 299 296 294 290 288 285 279 272 268 271 275 273 279 288 300 301 303 306 308 308
282 288 293 292 291 292 295 297 299 299 300 301 303 302 301 302 303 302 299 296 296 296 296 296 294 293 290 288 288 283 279 270 266 263 263 278 284 290 290 294 304 304 305
290 295 297 292 288 288 292 297 298 299 300 301 302 303 303 303 304 302 300 297 296 295 296 295 292 290 288 283 284 286 282 282 275 264 268 275 279 284 292 294 294 298 304
293 294 293 292 291 291 294 295 298 299 299 299 300 302 304 304 304 302 300 297 296 296 295 294 293 293 288 284 280 276 277 281 285 281 263 268 277 283 290 288 293 291 297
289 290 291 292 293 294 295 296 298 299 298 298 298 300 301 302 301 300 298 294 295 295 297 295 295 296 286 282 279 276 276 287 281 273 267 270 277 290 290 288 284 285 286
288 290 294 297 298 298 298 298 296 296 296 297 299 301 302 301 301 301 299 296 297 291 286 286 288 289 285 282 280 269 267 276 270 269 270 275 288 294 293 285 281 278 273
289 294 298 300 301 301 299 298 297 297 296 297 299 300 303 303 300 299 298 296 293 288 278 279 287 282 277 278 273 265 273 265 256 260 268 283 293 293 292 287 274 269 273
290 295 301 303 304 303 302 301 299 297 297 296 297 298 301 302 301 299 301 298 297 291 286 276 277 280 282 275 269 264 267 255 254 258 271 285 289 290 287 276 264 264 290
289 292 296 301 302 300 297 295 295 295 296 295 294 296 297 298 299 298 291 290 292 293 295 285 272 274 281 278 264 261 261 261 251 259 273 281 283 283 281 258 245 262 304
288 294 298 301 301 298 298 297 295 296 296 285 278 277 280 281 286 285 284 283 283 283 279 272 270 265 274 275 265 259 256 260 258 259 267 272 275 274 262 235 235 262 285
291 296 298 299 296 296 296 297 299 301 297 294 288 283 281 284 283 282 284 284 283 278 266 264 261 259 265 272 273 260 260 257 254 250 258 264 260 257 232 211 210 190 201
292 295 299 299 296 295 294 296 297 298 300 301 300 299 297 297 289 287 287 286 277 267 249 256 258 257 264 268 269 273 266 257 245 244 251 254 243 229 212 205 188 179 175
290 297 302 298 295 295 296 298 298 298 298 299 301 299 301 299 296 295 290 273 268 262 247 256 260 254 258 262 263 264 262 250 237 236 243 240 229 216 210 199 181 176 174
296 300 298 295 294 295 299 300 300 300 300 300 299 300 303 301 298 294 279 265 258 267 245 253 260 257 254 257 258 255 253 238 233 230 233 221 212 207 200 185 176 179 167
297 295 295 295 297 300 299 299 301 300 299 298 297 300 299 294 289 289 284 267 249 246 248 251 255 255 253 255 247 241 242 230 229 225 225 209 204 203 188 173 175 175 169
295 297 298 300 300 300 302 303 301 300 298 297 297 298 297 291 290 285 279 264 247 246 246 254 258 251 242 243 237 240 230 225 220 215 208 198 197 191 181 174 172 173 170
300 301 302 302 302 303 302 303 302 300 298 296 295 296 296 296 292 284 273 250 244 243 248 260 257 249 233 225 227 228 221 220 213 209 198 192 189 181 174 173 171 174 169
304 304 303 303 304 306 306 306 305 302 299 297 296 296 295 294 290 281 261 244 247 250 260 261 247 233 213 218 220 210 206 200 199 199 191 188 180 173 170 168 169 169 161
307 306 306 308 309 309 308 307 305 301 300 299 297 296 295 292 287 269 247 245 250 257 266 250 230 208 208 210 205 200 196 191 188 184 181 177 174 171 169 167 169 162 153
309 310 310 311 311 310 308 307 304 301 299 298 296 296 294 291 276 256 246 252 255 258 249 230 215 203 204 201 194 195 192 187 181 177 172 171 169 168 166 165 162 156 150